Location: St. Louis
(38.6270°N, 90.1994°W)
Time: 07:31:04
(UTC-06:00)

Altair - Pass Details

Date: 06 December 2021
Orbit: 1501 x 1683 km, 47.2° (Epoch: 17 January)

Event Time Altitude Azimuth Distance (km) Brightness Sun altitude
Rises 20:34:57 0° 300° (WNW) 4,676 10.7 -45.3°
Reaches altitude 10° 20:38:00 10° 300° (WNW) 3,678 10.0 -45.8°
Enters shadow 20:43:20 40° 298° (WNW) 2,077 8.3 -46.9°
Maximum altitude 20:47:14 85° 214° (SSW) 1,509 - -47.6°
Drops below altitude 10° 20:56:25 10° 127° (SE) 3,657 - -49.4°
Sets 20:59:27 0° 126° (SE) 4,648 - -50.0°
